Weather observations for the past three days for
New Haven, Tweed-New Haven Airport
Imperial (Metric)
Date Time (edt) Wind (mph) Vis. (mi.) Weather Sky Cond. Temperature (ºF) Relative Humidity Wind Chill (°F) Heat Index (°F) Pressure Precipitation (in)
Air Dwpt 6 hour altimeter (in) sea level (mb) 1 hr 3 hr 6 hr
Max. Min.
22 20:53 E 5 7.00 Thunderstorm in Vicinity CLR 73.9 72 94% 29.95 1014.2 0.03
22 19:53 Vrbl 3 4.00 Thunderstorm in Vicinity Light Rain Fog/Mist FEW075 SCT100 BKN120 73.9 72 88 73.9 94% 29.97 1014.9 0.11 0.11
22 18:53 SE 5 10.00 Thunderstorm in Vicinity FEW026 SCT070 BKN110 75.9 70 82% 77 29.97 1014.7
22 17:53 NE 10 10.00 Thunderstorm in Vicinity FEW037 SCT050 BKN070 75.9 69.1 79% 77 29.96 1014.4
22 16:53 SE 8 7.00 Fair CLR 82 73 74% 87 29.93 1013.5
22 15:53 Vrbl 6 7.00 Fair CLR 82.9 75 77% 90 29.93 1013.4
22 14:53 S 7 7.00 Fair CLR 87.1 73.9 65% 95 29.95 1014.1
22 13:53 S 6 6.00 Fair with Haze CLR 84.9 73.9 84.9 75.9 70% 92 29.98 1015.0
22 12:53 S 7 7.00 Fair CLR 84 73.9 72% 91 30 1015.7
22 11:53 S 7 6.00 Partly Cloudy with Haze SCT250 81 73.9 79% 86 30.01 1016.3
22 10:53 S 7 5.00 Partly Cloudy with Haze SCT250 80.1 73.9 82% 85 30.02 1016.5
22 09:53 W 3 7.00 Partly Cloudy FEW008 SCT250 81 73.9 79% 86 30.04 1017.2
22 08:53 Vrbl 3 7.00 Partly Cloudy FEW006 SCT250 78.1 73 85% 81 30.04 1017.3
22 07:53 Calm 5.00 Fog/Mist BKN006 75.9 72 75.9 72 88% 76 30.05 1017.6
22 06:53 Calm 5.00 Fog/Mist OVC006 73.9 72 94% 30.05 1017.6
22 05:53 Calm 3.00 Fog/Mist FEW020 BKN250 72 71.1 97% 30.05 1017.5
22 04:53 Calm 5.00 Fog/Mist CLR 72 70 94% 30.06 1017.7
22 03:53 Calm 6.00 Fog/Mist OVC010 73 71.1 94% 30.06 1017.8
22 02:53 NE 5 6.00 Fog/Mist BKN011 73 72 96% 30.06 1018.0
22 01:53 NE 6 6.00 Fog/Mist CLR 73.9 71.1 75.9 73 91% 30.07 1018.3 0.17
22 00:53 E 3 6.00 Fog/Mist SCT065 73.9 72 94% 30.09 1019.0
21 23:53 E 5 7.00 Fair CLR 73.9 72 94% 30.1 1019.1
21 22:53 NE 5 9.00 Fair CLR 75 73 94% 73 30.12 1019.7 0.17
21 21:53 SE 3 9.00 Thunderstorm in Vicinity CLR 75 72 90% 74 30.11 1019.4
21 20:53 NE 3 10.00 Thunderstorm in Vicinity SCT110 75 73 94% 73 30.11 1019.4 0.17
21 19:53 E 3 4.00 Thunderstorm in Vicinity Light Rain Fog/Mist BKN110 75.9 73.9 91.9 73.9 94% 75 30.12 1019.9 0.09 1
21 18:53 E 3 1.50 Thunderstorm in Vicinity Rain Fog/Mist BKN022 OVC060 75 72 90% 74 30.11 1019.7 0.91
21 17:53 Vrbl 7 9.00 Mostly Cloudy FEW047 BKN090 84 73.9 72% 91 30.09 1019.0
21 16:53 S 9 9.00 Fair CLR 89.1 73.9 61% 98 30.07 1018.2
21 15:53 S 12 10.00 Partly Cloudy SCT070 91.9 73 54% 101 30.08 1018.7
21 14:53 S 8 10.00 Fair CLR 91 70 50% 97 30.1 1019.2
21 13:53 SW 6 10.00 Partly Cloudy SCT050 89.1 71.1 90 77 55% 95 30.12 1020.0
21 12:53 SW 8 9.00 Fair CLR 84.9 71.1 63% 90 30.14 1020.6
21 11:53 SW 7 9.00 Fair CLR 84 71.1 65% 89 30.16 1021.2
21 10:53 SW 8 10.00 Fair CLR 82 71.1 69% 86 30.16 1021.2
21 09:53 W 5 9.00 Partly Cloudy SCT250 82.9 72 70% 88 30.16 1021.4
21 08:53 SW 3 10.00 Mostly Cloudy BKN250 81 70 69% 84 30.17 1021.5
21 07:53 W 3 10.00 Mostly Cloudy BKN250 77 70 77 70 79% 79 30.18 1021.9
21 06:53 S 3 9.00 Mostly Cloudy SCT090 BKN250 75 70 84% 75 30.18 1022.0
21 05:53 Calm 8.00 Mostly Cloudy SCT060 BKN250 71.1 68 90% 30.18 1021.9
21 04:53 Calm 9.00 A Few Clouds FEW080 70 68 93% 30.18 1022.1
21 03:53 Calm 10.00 Fair CLR 71.1 68 90% 30.18 1022.0
21 02:53 Calm 9.00 Fair CLR 72 69.1 91% 30.19 1022.1
21 01:53 S 3 10.00 A Few Clouds FEW070 72 69.1 79 72 91% 30.2 1022.5
21 00:53 S 3 9.00 Fair CLR 73 68 84% 30.21 1022.9
20 23:53 Calm 10.00 Fair CLR 73 66.9 81% 30.23 1023.8
20 22:53 Calm 10.00 Fair CLR 75.9 66.9 74% 77 30.24 1024.0
20 21:53 S 3 10.00 Fair CLR 75 69.1 82% 75 30.24 1023.9
20 20:53 S 5 10.00 Fair CLR 77 69.1 77% 79 30.22 1023.2
20 19:53 SW 8 10.00 Fair CLR 79 70 89.1 79 74% 82 30.2 1022.6
20 18:53 SW 7 10.00 Fair CLR 81 71.1 72% 85 30.2 1022.6
20 17:53 SW 9 G 20 10.00 Fair CLR 84.9 71.1 63% 90 30.2 1022.6
20 16:53 SW 7 10.00 Partly Cloudy SCT250 88 73 61% 96 30.22 1023.1
20 15:53 S 10 10.00 Partly Cloudy SCT250 87.1 73.9 65% 95 30.23 1023.5
20 14:53 S 8 10.00 Partly Cloudy SCT250 84 72 67% 90 30.25 1024.4
20 13:53 SW 9 10.00 Partly Cloudy SCT250 86 71.1 86 75 61% 92 30.27 1024.9
20 12:53 SW 13 10.00 Mostly Cloudy BKN250 84.9 71.1 63% 90 30.28 1025.5
20 11:53 Vrbl 7 10.00 Fair CLR 82.9 69.1 63% 87 30.3 1026.1
20 10:53 SW 14 10.00 Mostly Cloudy BKN250 81 68 65% 84 30.3 1026.0
20 09:53 SW 12 10.00 Fair CLR 77 66.9 71% 79 30.3 1026.1
20 08:53 SW 13 10.00 Fair CLR 75.9 68 77% 77 30.3 1026.1
20 07:53 SW 6 10.00 Fair CLR 75 66.9 75 69.1 76% 76 30.3 1026.0
20 06:53 Vrbl 3 10.00 Fair CLR 73 68 84% 30.3 1025.9
20 05:53 SW 3 10.00 Fair CLR 72 66.9 84% 30.3 1025.9
20 04:53 Calm 10.00 Fair CLR 72 68 87% 30.29 1025.7
20 03:53 SW 3 10.00 Fair CLR 71.1 66.9 87% 30.3 1025.8
20 02:53 SW 3 10.00 Fair CLR 71.1 68 90% 30.3 1025.9
20 01:53 S 3 10.00 Fair CLR 69.1 66.9 78.1 69.1 93% 30.3 1026.0
20 00:53 S 3 10.00 Fair CLR 73 66.9 81% 30.31 1026.4
19 23:53 SW 5 10.00 Fair CLR 73.9 66.9 79% 30.32 1026.7
19 22:53 SW 6 10.00 Fair CLR 73.9 66.9 79% 30.33 1026.9
19 21:53 SW 6 10.00 Fair CLR 75 64.9 71% 77 30.33 1026.9
Date Time (edt) Wind (mph) Vis. (mi.) Weather Sky Cond. Air Dwpt Max. Min. Relative Humidity Wind Chill (°F) Heat Index (°F) altimeter (in) sea level (mb) 1 hr 3 hr 6 hr
6 hour
Temperature (ºF) Pressure Precipitation (in)